[[{"header":{"parameterUnit":"m.s-1","parameterCategory":1,"la1":30.2991,"la2":30.254,"lo1":-89.0895,"lo2":-89.0444,"dy":0.0017,"dx":0.0017,"nx":28,"ny":28,"refTime":"2025-08-31T09:00:00:Z","depth":0,"parameterNumber":2,"parameterNumberName":"U-component_of_WINDS"},"data":[0,0,0,0,0,0,0,0,0,0,0,0,0,0,0,0,0,0,0,0,0,0,0,0,0,0,0,0,0,0,0,0,0,0,0,0,0,0,0,0,0,0,0,0,0,0,0,0,0,0,0,0,0,0,0,0,0,0,-3.3663,-3.3664,0,-3.3768,-3.3769,-3.377,-3.3667,-3.3663,-3.3659,-3.3655,-3.3764,-3.377,-3.3777,0,0,0,0,0,0,0,0,0,0,0,0,0,-3.3373,-3.3379,-3.3663,-3.3664,-3.3665,-3.3768,-3.3769,-3.3771,-3.3668,-3.3663,-3.3658,-3.3654,-3.3762,-3.377,-3.3778,0,0,0,0,0,0,0,0,0,0,0,0,0,-3.3491,-3.3381,-3.3663,-3.3627,-3.3624,-3.3767,-3.3769,-3.3771,-3.3669,-3.3663,-3.3657,-3.3651,-3.3759,-3.3769,-3.3779,-3.3963,0,0,-3.3809,-3.3814,0,0,0,0,0,0,0,0,-3.3484,-3.3502,-3.3631,-3.3629,-3.3627,-3.3698,-3.3707,-3.3835,-3.3671,-3.3652,-3.3655,-3.3648,-3.3747,-3.3758,-3.3791,-3.3968,-3.3972,-3.381,-3.3816,-3.3821,-3.3823,0,0,0,0,0,0,0,-3.3476,-3.3497,-3.3704,-3.3633,-3.3631,-3.3605,-3.3615,-3.3731,-3.3733,-3.3653,-3.3646,-3.366,-3.3745,-3.3781,-3.3793,-3.3974,-3.381,-3.3819,-3.3825,-3.3829,-3.4306,-3.4313,0,0,0,0,0,0,-3.3472,-3.3491,-3.3701,-3.3707,-3.3539,-3.3615,-3.3626,-3.3682,-3.3731,-3.3733,-3.3665,-3.3655,-3.3767,-3.3781,-3.3796,-3.4015,-3.3821,-3.383,-3.3836,-3.43,-3.4308,-3.4315,0,0,0,0,0,0,-3.3466,-3.3492,-3.3697,-3.3597,-3.3621,-3.3627,-3.369,-3.3687,-3.3723,-3.374,-3.374,-3.3702,-3.3763,-3.3782,-3.3922,-3.4017,-3.3834,-3.3844,-3.4292,-3.4302,-3.4311,-3.4454,0,0,0,0,0,0,-3.3458,-3.349,-3.3561,-3.3599,-3.3627,-3.3821,-3.3695,-3.3693,-3.3741,-3.3728,-3.3775,-3.3776,-3.376,-3.3907,-3.3932,-3.4028,-3.3851,-3.4283,-3.4297,-3.4308,-3.4441,-3.4467,-3.449,0,0,0,0,0,-3.3448,-3.3597,-3.3565,-3.3591,-3.3715,-3.3827,-3.3843,-3.382,-3.3749,-3.3819,-3.383,-3.3775,-3.4002,-3.3923,-3.3949,-3.4049,-3.4277,-3.4293,-3.4307,-3.443,-3.4462,-3.449,0,0,0,0,0,0,-3.357,-3.3601,-3.3566,-3.3731,-3.3777,-3.3809,-3.3898,-3.3856,-3.3923,-3.3909,-3.3878,-3.389,-3.4038,-3.4057,-3.3968,-3.423,-3.4128,-3.4149,-3.4212,-3.4243,-3.4268,-3.426,-3.386,0,0,0,0,0,-3.3615,-3.3704,-3.3727,-3.387,-3.3895,-3.3893,-3.3941,-3.3919,-3.3966,-3.3985,-3.4006,-3.4053,-3.4135,-3.419,-3.4266,-3.4442,-3.4451,-3.4524,-3.4549,-3.4569,-3.4588,-3.4683,-3.4716,-3.4364,-3.4364,-3.4364,0,0,-3.3711,-3.3739,-3.3797,-3.3895,-3.3928,-3.4021,-3.391,-3.4012,-3.4081,-3.4001,-3.4134,-3.4151,-3.4202,-3.4361,-3.4431,-3.4381,-3.4687,-3.4588,-3.4605,-3.4613,-3.4702,-3.4735,-3.4765,-3.4375,-3.4373,-3.4371,0,0,-3.3933,-3.3963,-3.4086,-3.4121,-3.4173,-3.417,-3.4199,-3.4238,-3.4246,-3.4379,-3.4321,-3.4401,-3.4543,-3.4582,-3.462,-3.4856,-3.4808,-3.4881,-3.5012,-3.5104,-3.5132,-3.5156,-3.5241,-3.5272,-3.49,-3.49,-3.49,0,-3.4046,-3.4183,-3.4155,-3.4262,-3.4307,-3.4237,-3.4361,-3.4397,-3.4471,-3.4504,-3.4446,-3.4622,-3.4651,-3.4818,-3.4876,-3.4909,-3.4942,-3.4877,-3.513,-3.5154,-3.5177,-3.5257,-3.5289,-3.4909,-3.4908,-3.4907,-3.4906,0,-3.432,-3.4415,-3.4508,-3.4581,-3.4636,-3.4751,-3.474,-3.4799,-3.4773,-3.4776,-3.4913,-3.4945,-3.5027,-3.5064,-3.5039,-3.5228,-3.5195,-3.5135,-3.5032,-3.522,-3.5295,-3.5325,-3.4921,-3.4918,-3.4916,-3.4913,0,0,-3.4623,-3.4677,-3.4712,-3.4744,-3.4795,-3.4868,-3.498,-3.5059,-3.5111,-3.5163,-3.5257,-3.5378,-3.5322,-3.5365,-3.5344,-3.5425,-3.561,-3.5354,-3.5355,-3.5401,-3.582,-3.5866,-3.5902,-3.5578,-3.5583,-3.5588,-3.5816,0,-3.4847,-3.5041,-3.5018,-3.5203,-3.5291,-3.5226,-3.5323,-3.5365,-3.5371,-3.5446,-3.5452,-3.5539,-3.5458,-3.5484,-3.5561,-3.5571,-3.5694,-3.5554,-3.5665,-3.5669,-3.5656,-3.5942,-3.5991,-3.6205,-3.5845,-3.585,-3.5854,0,-3.5135,-3.5198,-3.5392,-3.5429,-3.5465,-3.5553,-3.5623,-3.5696,-3.5742,-3.574,-3.5788,-3.5752,-3.5864,-3.5759,-3.5912,-3.5818,-3.5861,-3.5873,-3.5881,-3.5891,-3.5774,-3.5961,-3.6272,-3.6305,-3.5899,-3.5896,-3.5892,0,-3.5338,-3.547,-3.5604,-3.5633,-3.5679,-3.5742,-3.5764,-3.5804,-3.5853,-3.5914,-3.5946,-3.602,-3.6061,-3.6119,-3.6104,-3.6028,-3.6262,-3.6154,-3.6264,-3.6265,-3.6317,-3.6315,-3.6642,-3.6344,-3.6343,-3.6343,-3.6342,0,-3.5591,-3.5713,-3.5695,-3.5778,-3.5912,-3.5884,-3.6017,-3.6031,-3.6067,-3.615,-3.6098,-3.6178,-3.6152,-3.6231,-3.6219,-3.6349,-3.6367,-3.637,-3.6366,-3.6375,-3.6375,-3.6404,-3.639,-3.6351,-3.6349,-3.6348,-3.6346,0,-3.5841,-3.5834,-3.5975,-3.6007,-3.6017,-3.6115,-3.6142,-3.6219,-3.622,-3.6327,-3.635,-3.6352,-3.6441,-3.6431,-3.6532,-3.6524,-3.6685,-3.6662,-3.667,-3.6665,-3.6776,-3.6766,-3.7134,-3.7181,-3.6852,-3.6855,-3.6858,0,-3.6004,-3.6096,-3.6137,-3.6189,-3.6216,-3.63,-3.635,-3.6325,-3.6379,-3.6438,-3.6508,-3.6593,-3.6659,-3.6805,-3.6816,-3.6892,-3.6871,-3.6995,-3.6883,-3.6889,-3.6874,-3.687,-3.6879,-3.7018,-3.7021,-3.7024,-3.7027,0,-3.6294,-3.6286,-3.6359,-3.6432,-3.6492,-3.6548,-3.6599,-3.6644,-3.6625,-3.6688,-3.6779,-3.683,-3.6932,-3.7017,-3.7089,-3.7111,-3.7067,-3.7062,-3.7091,-3.7103,-3.7104,-3.7106,-3.6732,-3.7054,-3.7051,-3.7049,-3.7048,-3.7047,-3.6506,-3.6585,-3.6626,-3.6709,-3.6745,-3.6793,-3.6867,-3.6877,-3.6952,-3.7033,-3.7013,-3.7116,-3.7158,-3.725,-3.728,-3.736,-3.7315,-3.7358,-3.7369,-3.738,-3.7393,-3.709,-3.7373,-3.7372,-3.7371,-3.7371,-3.737,0,-3.6795,-3.6817,-3.6894,-3.6966,-3.7032,-3.6983,-3.7036,-3.7094,-3.7185,-3.7228,-3.7294,-3.7398,-3.748,-3.7497,-3.7574,-3.7635,-3.7617,-3.7657,-3.7653,-3.7659,-3.7429,-3.7396,-3.767,-3.767,-3.767,-3.767,-3.767,-3.767,-3.6952,-3.7083,-3.7079,-3.7227,-3.7248,-3.7348,-3.7383,-3.7427,-3.7461,-3.758,-3.7647,-3.7657,-3.7689,-3.7769,-3.7842,-3.7844,-3.7876,-3.7925,-3.7919,-3.7705,-3.7675,-3.7646,-3.7615,-3.7931,-3.7932,-3.8143,-3.8145,-3.8146]},{"header":{"parameterUnit":"m.s-1","parameterCategory":1,"la1":30.2991,"la2":30.254,"lo1":-89.0895,"lo2":-89.0444,"dy":0.0017,"dx":0.0017,"nx":28,"ny":28,"refTime":"2025-08-31T09:00:00:Z","depth":0,"parameterNumber":3,"parameterNumberName":"V-component_of_WINDS"},"data":[0,0,0,0,0,0,0,0,0,0,0,0,0,0,0,0,0,0,0,0,0,0,0,0,0,0,0,0,0,0,0,0,0,0,0,0,0,0,0,0,0,0,0,0,0,0,0,0,0,0,0,0,0,0,0,0,0,0,-2.0702,-2.0702,0,-2.0678,-2.0678,-2.0677,-2.065,-2.065,-2.0649,-2.0649,-2.0623,-2.0623,-2.0623,0,0,0,0,0,0,0,0,0,0,0,0,0,-2.0723,-2.0723,-2.0702,-2.0702,-2.0702,-2.0678,-2.0678,-2.0677,-2.065,-2.065,-2.0649,-2.0649,-2.0623,-2.0623,-2.0622,0,0,0,0,0,0,0,0,0,0,0,0,0,-2.0708,-2.0723,-2.0702,-2.0685,-2.0684,-2.0678,-2.0678,-2.0677,-2.065,-2.065,-2.0649,-2.0648,-2.0623,-2.0623,-2.0622,-2.0631,0,0,-2.0621,-2.0621,0,0,0,0,0,0,0,0,-2.0709,-2.0707,-2.0688,-2.0687,-2.0685,-2.0666,-2.0675,-2.0662,-2.065,-2.0663,-2.0649,-2.0648,-2.0638,-2.0636,-2.0633,-2.063,-2.0629,-2.0621,-2.0621,-2.062,-2.062,0,0,0,0,0,0,0,-2.071,-2.0708,-2.0693,-2.0688,-2.0686,-2.0678,-2.0675,-2.0673,-2.0654,-2.0662,-2.066,-2.0657,-2.0637,-2.0633,-2.0632,-2.0629,-2.0621,-2.0621,-2.062,-2.062,-2.0629,-2.063,0,0,0,0,0,0,-2.0714,-2.0709,-2.0693,-2.0692,-2.0696,-2.0678,-2.0675,-2.0673,-2.0654,-2.0651,-2.0658,-2.0656,-2.0635,-2.0633,-2.0631,-2.0639,-2.062,-2.062,-2.062,-2.0629,-2.0629,-2.063,0,0,0,0,0,0,-2.0714,-2.0713,-2.0694,-2.07,-2.0697,-2.0679,-2.0676,-2.0673,-2.0669,-2.0651,-2.0647,-2.0658,-2.0634,-2.0632,-2.0631,-2.0637,-2.062,-2.0619,-2.0628,-2.0629,-2.063,-2.0655,0,0,0,0,0,0,-2.0715,-2.0713,-2.0717,-2.07,-2.0697,-2.0696,-2.0677,-2.0673,-2.0669,-2.0666,-2.065,-2.0647,-2.0633,-2.0632,-2.0631,-2.0636,-2.0619,-2.0627,-2.0629,-2.0629,-2.0653,-2.0656,-2.0659,0,0,0,0,0,-2.0716,-2.0726,-2.0718,-2.0716,-2.0702,-2.0696,-2.0694,-2.0678,-2.0669,-2.0672,-2.066,-2.0647,-2.0637,-2.0632,-2.063,-2.0636,-2.0627,-2.0628,-2.0629,-2.0652,-2.0656,-2.0659,0,0,0,0,0,0,-2.0744,-2.0723,-2.0714,-2.0719,-2.0709,-2.0691,-2.0695,-2.0683,-2.0676,-2.0674,-2.0655,-2.0651,-2.0652,-2.0644,-2.0639,-2.0642,-2.063,-2.0631,-2.0648,-2.0651,-2.0654,-2.0656,-2.0619,0,0,0,0,0,-2.0751,-2.0749,-2.073,-2.0736,-2.0732,-2.0714,-2.0711,-2.07,-2.0689,-2.0685,-2.0673,-2.0663,-2.0657,-2.0654,-2.0648,-2.0652,-2.0647,-2.0655,-2.0658,-2.066,-2.0661,-2.066,-2.0663,-2.0634,-2.0634,-2.0634,0,0,-2.0765,-2.0753,-2.0753,-2.0741,-2.0733,-2.073,-2.0711,-2.071,-2.0707,-2.0685,-2.0683,-2.0674,-2.0661,-2.0662,-2.0662,-2.0655,-2.0668,-2.0662,-2.0664,-2.0663,-2.0662,-2.0665,-2.0667,-2.0635,-2.0635,-2.0634,0,0,-2.0788,-2.078,-2.0783,-2.0774,-2.0761,-2.0749,-2.075,-2.0733,-2.0726,-2.0724,-2.0706,-2.0702,-2.0694,-2.0684,-2.0679,-2.0696,-2.0683,-2.0695,-2.0709,-2.0709,-2.0711,-2.0713,-2.0718,-2.072,-2.0696,-2.0696,-2.0696,0,-2.0807,-2.0803,-2.0786,-2.0784,-2.0779,-2.0758,-2.076,-2.0753,-2.0738,-2.0734,-2.0727,-2.0713,-2.0704,-2.0701,-2.0705,-2.0702,-2.0701,-2.0696,-2.0712,-2.0714,-2.0716,-2.072,-2.0722,-2.0697,-2.0697,-2.0697,-2.0697,0,-2.0825,-2.0822,-2.0826,-2.0812,-2.0807,-2.0807,-2.0789,-2.0786,-2.0774,-2.0763,-2.0759,-2.0746,-2.0736,-2.0735,-2.0724,-2.073,-2.0726,-2.0716,-2.0703,-2.072,-2.0723,-2.0725,-2.0699,-2.0698,-2.0698,-2.0698,0,0,-2.0867,-2.0842,-2.0844,-2.0836,-2.0819,-2.0816,-2.0814,-2.0804,-2.0801,-2.0791,-2.0788,-2.078,-2.0769,-2.0763,-2.075,-2.075,-2.0762,-2.0739,-2.0739,-2.0743,-2.0766,-2.0774,-2.0776,-2.0754,-2.0754,-2.0754,-2.0767,0,-2.0886,-2.0883,-2.0866,-2.0867,-2.0863,-2.0842,-2.0841,-2.0829,-2.0818,-2.0812,-2.0799,-2.0793,-2.0781,-2.0776,-2.0775,-2.0761,-2.0767,-2.076,-2.075,-2.075,-2.0753,-2.0778,-2.0786,-2.0799,-2.0768,-2.0768,-2.0769,0,-2.0909,-2.09,-2.09,-2.0881,-2.0879,-2.0878,-2.0866,-2.0861,-2.0847,-2.0838,-2.083,-2.0815,-2.0811,-2.0799,-2.0792,-2.0788,-2.0782,-2.0775,-2.0775,-2.0773,-2.076,-2.0775,-2.0802,-2.0804,-2.0771,-2.0771,-2.0771,0,-2.0937,-2.0925,-2.0923,-2.0917,-2.0896,-2.0895,-2.0886,-2.0871,-2.0865,-2.0855,-2.085,-2.0839,-2.0833,-2.0824,-2.0807,-2.08,-2.0801,-2.0788,-2.0793,-2.0793,-2.0794,-2.0794,-2.0819,-2.0792,-2.0792,-2.0792,-2.0792,0,-2.096,-2.0961,-2.0935,-2.0934,-2.0933,-2.0914,-2.0913,-2.0902,-2.0889,-2.0884,-2.0866,-2.0861,-2.0839,-2.0832,-2.0818,-2.0813,-2.0811,-2.0803,-2.0799,-2.0804,-2.0805,-2.08,-2.0798,-2.0792,-2.0792,-2.0792,-2.0792,0,-2.0992,-2.0975,-2.0971,-2.095,-2.0945,-2.0945,-2.0927,-2.0924,-2.0911,-2.0905,-2.0902,-2.0881,-2.0871,-2.0853,-2.0839,-2.0829,-2.0827,-2.0821,-2.0831,-2.0829,-2.0834,-2.0833,-2.0856,-2.0858,-2.0831,-2.0831,-2.0831,0,-2.1007,-2.1007,-2.0986,-2.0981,-2.0972,-2.0966,-2.0959,-2.0939,-2.0933,-2.0916,-2.0915,-2.0903,-2.0893,-2.0878,-2.0861,-2.0849,-2.0842,-2.0851,-2.0841,-2.0845,-2.0841,-2.0841,-2.084,-2.0854,-2.0854,-2.0854,-2.0855,0,-2.1036,-2.1027,-2.1018,-2.1006,-2.0999,-2.0989,-2.0977,-2.0974,-2.0952,-2.0945,-2.0935,-2.0927,-2.0911,-2.09,-2.0885,-2.0874,-2.086,-2.0858,-2.0858,-2.0863,-2.0868,-2.0864,-2.0837,-2.0858,-2.0857,-2.0857,-2.0857,-2.0857,-2.1059,-2.1057,-2.1041,-2.1031,-2.102,-2.101,-2.1005,-2.0991,-2.0982,-2.0968,-2.0956,-2.0946,-2.093,-2.0909,-2.0899,-2.089,-2.0884,-2.0884,-2.0884,-2.0884,-2.0886,-2.087,-2.0887,-2.0887,-2.0887,-2.0887,-2.0887,0,-2.1085,-2.1073,-2.1065,-2.1049,-2.1041,-2.1028,-2.1015,-2.1008,-2.1,-2.0986,-2.0976,-2.0963,-2.0951,-2.0933,-2.0919,-2.0915,-2.0908,-2.0912,-2.0912,-2.0909,-2.0893,-2.0894,-2.0918,-2.0918,-2.0918,-2.0918,-2.0918,-2.0918,-2.1098,-2.1093,-2.1082,-2.1071,-2.1059,-2.1049,-2.1042,-2.1031,-2.102,-2.1006,-2.0996,-2.0984,-2.0968,-2.0952,-2.094,-2.0935,-2.093,-2.0936,-2.0929,-2.0914,-2.0911,-2.0908,-2.0908,-2.0935,-2.0936,-2.0945,-2.0946,-2.0946]}]]